Theta_e
339 343 347 348 348 348 348 347 345 344 343 342 342 341 342 342 342 343 345 346 346 344 347 345 341 342 340 339 338 338 338 338 338 338 338 339 340 341 342 343 344 342 345
342 344 346 350 348 348 349 348 346 345 342 341 341 341 340 340 341 342 342 345 345 346 346 344 343 339 338 336 335 336 335 335 338 340 338 338 339 338 339 341 343 341 343
343 345 345 348 349 348 349 348 347 344 342 341 340 340 339 339 339 340 341 343 342 345 346 343 341 338 336 334 334 334 334 334 337 339 336 331 332 336 337 337 338 338 339
344 344 345 346 350 349 349 348 347 345 341 340 340 339 338 337 337 337 339 340 342 344 343 342 339 336 334 333 334 333 333 335 337 336 330 329 330 335 335 335 334 335 334
343 344 346 347 350 349 348 348 347 345 341 340 338 336 335 334 333 334 337 338 341 343 341 338 335 333 332 333 332 332 333 336 335 331 330 331 332 332 335 334 332 333 335
343 344 345 349 350 349 348 348 347 344 341 340 339 337 333 332 331 332 335 336 337 340 337 333 331 330 331 331 331 331 332 336 332 329 329 331 327 334 333 334 332 334 335
341 343 347 347 348 348 348 347 347 345 342 341 340 339 334 330 330 331 333 334 335 334 331 329 328 328 329 329 329 330 332 333 331 331 329 332 334 337 336 336 335 335 335
342 345 346 340 343 345 347 346 346 345 343 341 340 338 335 330 329 330 331 331 332 330 327 325 326 327 328 327 327 328 330 328 325 326 327 330 334 335 336 335 334 333 332
342 343 343 342 342 338 341 341 343 343 343 342 340 339 336 333 331 330 330 329 329 327 324 323 324 326 327 327 327 328 327 326 323 324 323 325 328 331 332 332 331 330 330
340 341 342 342 343 344 345 335 337 339 340 340 337 334 332 331 330 329 327 327 325 324 322 322 323 325 326 325 325 325 325 327 326 326 327 327 329 328 328 329 329 328 327
338 340 341 340 341 342 343 339 333 334 335 334 331 328 326 328 327 327 324 325 324 322 321 321 323 323 322 322 323 324 324 324 325 325 326 329 331 333 332 330 328 326 325
337 338 340 341 340 341 341 343 343 343 341 338 334 332 336 333 331 325 320 322 323 322 320 320 321 322 320 319 320 322 322 320 321 323 324 328 329 330 329 327 326 324 322
335 338 339 341 342 343 342 343 344 343 343 341 337 335 336 331 328 325 321 320 319 317 316 316 317 318 319 319 318 318 319 319 317 316 316 325 326 326 326 324 323 320 319
333 336 339 341 342 344 344 343 343 343 343 340 340 336 333 329 325 323 321 322 321 322 320 319 318 317 316 316 316 314 315 315 315 314 313 318 323 324 324 321 319 318 317
330 334 338 340 341 341 342 342 343 341 343 342 339 334 332 328 326 325 321 320 320 321 320 317 315 314 313 312 311 310 310 310 311 312 312 313 319 319 319 318 318 317 316
331 333 336 337 338 337 339 339 340 341 341 343 338 336 332 330 327 324 320 318 318 318 319 317 314 311 309 306 303 303 304 305 306 309 310 308 313 314 315 316 316 315 314
331 332 333 333 336 336 335 337 339 341 340 340 340 339 334 333 326 323 320 319 317 319 319 314 311 306 302 300 299 298 298 299 300 304 305 305 305 309 310 312 312 312 312
329 329 332 330 331 332 332 334 336 338 339 340 340 339 335 332 329 323 320 317 319 318 314 310 304 298 296 297 297 296 296 296 296 297 300 300 301 302 304 307 308 308 309
327 329 330 329 327 329 330 331 332 335 337 337 337 336 338 332 329 324 321 319 319 314 311 307 300 297 295 295 295 295 295 294 294 293 293 294 296 297 298 301 301 303 304
325 327 328 328 326 327 328 328 329 332 333 333 332 333 332 330 327 325 320 317 313 312 309 303 298 297 295 294 293 293 293 293 294 293 291 291 292 292 293 294 296 296 300
321 322 324 324 324 324 324 323 324 326 323 323 325 324 328 328 326 325 322 314 310 308 306 300 297 296 293 294 292 291 291 291 291 292 292 291 290 290 290 291 292 292 293
314 318 319 319 319 320 320 320 320 321 321 320 316 316 316 320 323 319 316 312 307 306 302 298 296 293 292 294 293 291 286 287 289 290 291 290 289 289 288 288 289 290 292
311 314 315 316 316 317 318 318 318 317 317 313 311 311 308 310 315 314 313 310 306 306 302 297 296 294 290 292 295 298 289 289 286 288 288 289 289 288 287 287 287 288 289
312 313 313 315 315 316 318 316 315 311 309 310 313 311 307 305 307 309 310 309 306 306 305 298 297 298 294 291 296 299 298 293 288 282 287 287 288 287 287 287 286 286 288
312 312 313 313 313 315 316 316 314 310 313 314 315 309 304 300 304 302 305 306 305 305 305 300 298 298 296 295 296 297 295 296 295 288 282 283 286 287 287 286 286 286 286
311 311 312 311 311 313 315 315 313 312 313 314 313 306 300 298 296 300 299 300 301 302 301 300 299 299 298 299 299 296 293 291 290 290 286 283 283 285 286 287 286 286 286
Wind_Speed
11 12 11 9 10 11 14 13 12 11 12 13 14 13 14 14 14 12 12 13 15 14 18 20 19 20 20 20 20 19 19 18 20 23 23 23 22 22 22 22 21 20 24
14 14 11 9 10 11 14 12 12 11 12 13 13 14 13 14 13 13 13 14 14 14 19 20 19 19 20 19 20 19 18 15 11 11 18 21 22 23 22 22 23 21 25
15 15 13 10 11 12 13 12 12 12 13 13 13 14 13 14 13 13 12 13 12 14 19 20 20 19 19 19 19 18 16 12 9 11 16 14 17 23 23 23 22 24 25
14 14 14 11 12 14 12 12 13 12 13 13 14 14 14 14 14 13 12 12 12 16 19 19 19 18 18 19 19 18 14 11 13 14 13 15 16 23 23 24 25 24 24
14 14 14 12 13 14 12 11 13 12 13 13 14 14 14 14 14 14 13 13 14 17 19 19 18 17 18 18 18 15 12 8 13 17 15 13 13 19 23 23 23 23 22
13 13 15 13 14 14 13 11 14 13 13 13 14 14 14 14 15 15 15 15 15 18 19 18 17 17 18 18 17 14 11 8 15 15 14 13 11 20 21 22 22 21 21
12 10 14 11 12 14 13 12 13 13 13 13 14 14 15 15 15 15 16 15 16 17 17 17 18 18 18 18 17 15 13 15 15 17 13 12 14 21 21 22 23 24 26
14 10 13 11 10 12 12 12 13 14 14 13 14 14 15 15 16 16 16 16 17 17 17 18 19 19 19 17 15 13 11 10 14 14 12 11 18 22 24 24 26 27 26
14 11 12 13 12 8 10 11 12 13 13 13 13 13 14 14 14 15 15 16 17 17 18 18 19 19 19 18 16 11 11 12 14 9 12 9 15 19 21 23 23 25 26
9 12 13 14 13 13 11 10 12 11 12 12 13 13 12 13 13 13 12 14 16 17 17 18 19 19 18 16 11 7 7 17 14 12 9 8 15 18 19 22 22 25 25
9 12 12 12 12 11 12 11 11 13 13 13 12 13 13 10 12 11 12 14 17 17 18 18 18 18 17 12 10 10 11 9 11 8 7 12 18 24 25 26 25 25 25
16 14 12 12 12 10 8 13 13 12 12 12 12 14 7 10 10 11 11 13 15 16 18 17 16 13 9 7 6 8 7 10 9 9 7 18 21 24 24 24 24 24 23
16 13 14 13 14 13 8 8 6 7 7 8 13 7 5 6 9 7 7 8 9 11 8 10 7 5 7 6 7 7 9 9 7 6 11 15 19 21 22 21 22 20 21
17 17 15 16 14 13 8 8 8 7 8 8 9 12 6 5 7 8 5 7 7 6 8 7 5 8 9 10 9 9 9 8 6 6 11 13 18 20 20 19 19 21 20
17 17 17 15 11 10 11 9 9 10 8 8 8 11 8 7 8 9 6 4 4 4 6 7 8 8 9 9 9 10 10 10 10 6 7 18 18 19 18 18 19 19 19
16 17 17 17 15 12 11 10 8 8 10 9 9 10 11 8 7 7 8 7 7 6 6 6 8 8 8 8 9 9 9 8 9 9 8 10 19 17 17 17 18 18 18
16 17 18 17 16 15 13 10 10 8 8 9 9 14 14 11 10 9 8 7 8 7 10 8 9 8 8 8 9 8 8 8 8 8 8 7 10 16 16 17 17 17 17
17 18 17 12 15 15 13 10 8 8 8 6 7 10 13 13 15 10 8 8 8 8 8 9 9 7 8 8 7 7 7 7 8 7 6 6 6 7 12 16 17 16 15
19 18 18 18 17 16 14 10 11 11 8 7 5 6 13 13 14 11 9 8 11 6 8 9 8 8 9 8 8 7 6 6 6 7 8 7 6 7 6 14 17 15 13
18 18 18 16 18 16 10 9 8 8 8 8 7 5 9 9 13 10 9 11 9 9 8 9 11 8 8 9 9 8 6 5 5 5 7 6 6 6 5 6 6 8 13
17 18 19 18 17 13 10 10 9 10 6 7 7 7 7 10 12 12 10 12 10 9 10 10 11 12 9 10 9 7 6 5 5 4 5 5 6 6 6 5 3 3 4
19 19 17 18 17 15 10 9 8 9 9 8 5 5 5 6 11 10 11 12 12 9 12 12 12 9 6 10 7 6 5 3 3 4 4 4 6 4 5 5 5 4 3
17 18 19 19 18 16 14 9 8 6 5 6 7 5 5 4 7 10 12 12 12 11 12 15 13 14 10 10 14 4 5 5 8 4 5 4 5 4 4 4 4 3 3
16 15 16 17 17 16 17 12 14 10 10 9 9 6 7 5 5 7 10 11 13 10 14 14 13 10 9 13 9 4 2 8 5 6 5 5 5 6 6 4 4 3 3
12 13 14 15 16 16 15 14 11 12 8 7 8 10 8 5 6 6 8 10 12 9 13 16 14 10 7 9 9 7 3 2 5 4 6 6 5 6 5 5 4 4 3
6 9 10 13 14 14 14 15 15 14 11 9 10 7 5 5 4 7 9 9 9 8 11 12 14 13 11 10 8 9 6 5 6 4 4 9 8 7 6 5 5 4 3
Wind_Direction
177 152 157 175 157 139 124 119 113 105 101 95 92 88 83 80 74 70 60 67 76 75 91 84 77 72 69 67 69 68 72 71 76 75 65 61 61 54 47 42 46 53 51
166 160 158 168 161 151 129 124 114 108 101 96 96 94 91 88 83 72 64 68 76 81 87 84 78 75 70 68 69 68 67 60 61 95 82 70 59 58 58 50 50 51 52
156 144 163 165 162 143 136 129 116 114 102 99 97 96 91 89 89 82 75 73 78 84 86 83 78 75 72 72 72 72 65 48 31 76 76 74 65 63 60 56 58 54 50
151 147 163 154 151 145 142 133 120 114 108 103 100 98 93 92 91 90 83 81 83 93 89 85 80 78 77 77 74 74 64 47 48 64 68 67 69 63 65 64 61 58 59
154 158 139 148 148 150 149 139 127 119 114 109 103 101 99 96 96 96 91 84 81 83 87 81 82 81 81 79 77 73 61 54 76 68 58 64 67 69 65 65 65 64 60
157 159 135 148 153 153 155 147 130 126 120 113 108 105 103 101 99 99 99 94 87 83 86 87 89 86 83 81 78 64 41 37 68 70 80 69 71 72 73 73 71 68 66
164 148 152 153 158 156 158 151 138 132 128 121 115 112 108 107 105 104 103 102 97 92 96 96 93 89 87 84 80 64 47 52 84 67 53 55 78 76 82 76 71 73 66
159 147 157 161 159 158 160 153 148 140 135 128 120 117 115 113 109 107 105 104 104 104 103 99 96 93 88 85 74 56 30 66 76 79 74 62 66 70 70 73 70 67 65
161 163 162 171 169 157 158 154 151 148 138 133 126 118 113 108 106 105 106 107 108 107 105 103 100 97 92 87 75 55 49 66 79 72 73 64 72 74 73 72 70 70 65
162 178 176 175 173 172 168 159 153 150 141 130 118 111 105 102 101 98 103 108 110 108 105 103 103 100 95 87 68 40 44 58 71 69 71 75 83 83 79 80 76 73 69
186 191 180 181 181 176 171 166 161 158 147 132 129 132 143 130 129 137 102 115 114 113 109 106 103 99 91 69 40 36 77 74 73 70 69 76 82 80 83 84 80 77 72
194 196 188 185 189 182 179 165 178 170 165 164 161 167 146 145 127 125 116 116 115 112 111 111 116 133 127 101 85 62 79 77 68 66 61 73 83 82 82 80 79 75 74
197 196 199 184 196 188 181 172 182 177 183 178 166 180 138 112 129 133 131 130 126 129 124 128 144 96 91 91 86 87 85 86 74 57 24 69 84 85 81 79 77 78 70
200 199 199 198 195 196 176 188 190 186 193 179 171 168 151 142 141 147 153 153 154 153 141 125 108 103 94 88 90 90 88 91 84 61 36 27 84 86 87 82 77 72 74
204 202 193 201 198 194 200 194 193 193 199 181 170 164 161 160 168 156 154 160 141 130 136 126 127 115 105 98 93 92 89 89 91 84 58 37 68 76 80 80 81 79 74
205 204 202 199 199 194 203 195 204 203 197 188 179 179 171 169 163 159 156 157 154 151 145 135 130 123 110 104 99 98 97 94 99 95 78 52 53 69 76 80 77 77 74
207 207 200 201 202 202 204 215 207 218 216 192 184 186 183 173 169 164 158 159 159 160 148 126 118 109 113 108 108 102 101 104 103 98 101 85 63 51 71 74 74 72 71
210 209 200 194 201 203 205 206 218 215 206 220 194 193 183 180 179 166 161 161 160 157 145 144 139 131 123 124 122 109 103 102 105 106 94 99 98 85 64 71 68 67 66
209 205 203 198 202 202 206 208 210 213 214 206 188 208 195 183 182 173 163 160 162 153 151 146 142 146 134 127 122 116 113 111 110 104 104 97 100 101 91 73 62 61 63
210 208 207 203 202 201 201 206 215 214 207 214 201 189 189 176 177 173 162 159 152 153 153 151 142 147 135 133 125 118 111 113 117 118 117 111 108 103 94 87 84 58 58
211 207 207 204 203 198 198 199 203 206 192 217 211 189 187 180 180 182 169 158 153 168 161 150 146 151 140 136 119 115 109 118 128 134 133 124 120 103 98 93 86 81 73
208 206 205 205 200 202 197 200 210 210 213 209 200 187 174 178 175 168 165 165 159 170 147 151 167 146 143 167 139 134 156 153 161 164 151 137 131 121 104 88 86 82 87
211 207 206 202 200 198 200 195 198 204 187 204 210 194 182 165 171 164 172 165 165 173 165 164 174 165 158 190 170 152 159 187 142 177 174 170 161 144 130 125 118 113 92
214 213 210 204 200 199 194 195 193 197 205 210 206 190 177 156 184 166 172 178 169 164 173 177 177 177 157 174 180 154 342 122 184 167 184 185 183 177 167 171 148 130 130
208 208 207 205 202 198 196 198 189 207 215 200 197 183 176 155 190 172 171 175 176 177 179 180 182 177 178 178 187 156 188 162 147 142 166 178 193 188 175 176 171 155 142
210 193 202 208 205 202 199 203 201 210 214 202 188 179 166 166 178 184 174 173 175 181 181 189 185 183 175 183 203 172 173 170 188 170 131 160 180 180 178 177 186 179 155